User: anonymous   Login
Location: Unspecified
(0.0000°N, 0.0000°E)
Time: 02:01:14
(UTC+00:00)
Language:

STARLINK-30527 - Orbit

View from above orbital plane
View from above orbital plane
View from above satellite
View from above satellite

Ground track
Ground track

The orbit is defined by the following mean orbital elements,

1 58007U          26145.41404645 +.00000000 +00000-0 +36700-4 0 00009
2 58007  43.0023 125.0797 0001229 260.2935  99.7778 15.27579663    04
Epoch (UTC): 25 May 2026 09:56:13
Eccentricity: 0.0001229
inclination: 43.0023°
perigee height: 482 km
apogee height: 484 km
right ascension of ascending node: 125.0797°
argument of perigee: 260.2935°
revolutions per day: 15.27579663
mean anomaly at epoch: 99.7778°

The dashed part of the orbit path shows where the satellite is in the earth's shadow,  

DLR